﻿#観測日時,平均風速,平均風向,最大風速,最大風速発生風向,最大瞬間風速,最大瞬間風速発生風向
#(年月日),(m/s)   ,(16方位),(m/s)   ,(16方位)        ,(m/s)       ,(16方位)            
2020/1/29 0:01,0.8,4,0.8,3,1,6
2020/1/29 0:02,0.8,4,0.8,3,1.4,5
2020/1/29 0:03,0.8,4,0.8,3,1.4,4
2020/1/29 0:04,0.8,5,0.8,3,1.6,4
2020/1/29 0:05,0.8,5,0.8,3,1.3,5
2020/1/29 0:06,0.7,5,0.8,3,0.8,4
2020/1/29 0:07,0.7,5,0.7,3,0.6,6
2020/1/29 0:08,0.6,5,0.7,3,0.1,6
2020/1/29 0:09,0.6,5,0.6,3,0.4,7
2020/1/29 0:10,0.5,5,0.6,4,0.4,7
2020/1/29 0:11,0.5,6,0.5,4,0.3,7
2020/1/29 0:12,0.4,6,0.5,4,0.1,7
2020/1/29 0:13,0.3,6,0.4,4,0.5,6
2020/1/29 0:14,0.2,6,0.3,5,0.6,6
2020/1/29 0:15,0.2,6,0.2,5,0.8,3
2020/1/29 0:16,0.2,6,0.2,5,0.4,4
2020/1/29 0:17,0.1,5,0.2,5,0.1,2
2020/1/29 0:18,0.1,5,0.1,5,0.3,7
2020/1/29 0:19,0.1,5,0.1,5,0.1,7
2020/1/29 0:20,0.1,5,0.1,5,0,7
2020/1/29 0:21,0.1,5,0.1,6,0.8,7
2020/1/29 0:22,0.2,5,0.2,6,1,7
2020/1/29 0:23,0.2,5,0.2,6,0.6,5
2020/1/29 0:24,0.2,5,0.2,6,0.6,6
2020/1/29 0:25,0.2,5,0.2,6,0.9,6
2020/1/29 0:26,0.3,6,0.3,5,1.4,6
2020/1/29 0:27,0.4,6,0.4,6,1.5,6
2020/1/29 0:28,0.4,6,0.4,6,0.5,6
2020/1/29 0:29,0.4,6,0.4,6,1.3,9
2020/1/29 0:30,0.5,6,0.5,6,1.5,6
2020/1/29 0:31,0.6,6,0.6,6,0.8,5
2020/1/29 0:32,0.6,6,0.6,6,1.4,5
2020/1/29 0:33,0.7,6,0.7,6,1.6,6
2020/1/29 0:34,0.7,6,0.7,6,1.6,7
2020/1/29 0:35,0.8,6,0.8,6,1.6,6
2020/1/29 0:36,0.8,6,0.8,6,1.4,7
2020/1/29 0:37,0.7,6,0.8,6,0.3,6
2020/1/29 0:38,0.7,6,0.7,6,0.4,6
2020/1/29 0:39,0.7,6,0.7,6,0.6,6
2020/1/29 0:40,0.7,6,0.7,6,0.5,7
2020/1/29 0:41,0.7,6,0.7,6,1.1,8
2020/1/29 0:42,0.6,6,0.7,6,1.1,7
2020/1/29 0:43,0.5,6,0.6,6,0.5,6
2020/1/29 0:44,0.4,6,0.5,6,0.5,15
2020/1/29 0:45,0.4,6,0.4,6,2,6
2020/1/29 0:46,0.5,6,0.5,6,2.1,6
2020/1/29 0:47,0.5,6,0.5,6,1.5,6
2020/1/29 0:48,0.5,7,0.5,6,0.1,10
2020/1/29 0:49,0.6,7,0.6,6,1.4,8
2020/1/29 0:50,0.6,7,0.6,6,1.4,8
2020/1/29 0:51,0.6,8,0.6,6,1.3,9
2020/1/29 0:52,0.6,8,0.6,6,2.4,9
2020/1/29 0:53,0.8,9,0.8,9,2.5,8
2020/1/29 0:54,0.9,8,0.9,8,2.7,8
2020/1/29 0:55,1,8,1,8,2.5,7
2020/1/29 0:56,0.9,8,1,8,1.5,8
2020/1/29 0:57,1,8,1,8,1.8,7
2020/1/29 0:58,1.1,8,1.1,8,2,8
2020/1/29 0:59,1.2,8,1.2,8,1.8,7
2020/1/29 1:00,1.2,8,1.2,8,1.6,7
2020/1/29 1:01,1.2,8,1.3,8,0.4,5
2020/1/29 1:02,1.2,8,1.2,8,2,9
2020/1/29 1:03,1.1,8,1.2,8,1,8
2020/1/29 1:04,0.9,8,1.1,8,0.6,14
2020/1/29 1:05,0.8,7,0.9,8,0.8,6
2020/1/29 1:06,0.8,7,0.8,8,1.3,8
2020/1/29 1:07,0.7,8,0.8,8,0.8,8
2020/1/29 1:08,0.6,8,0.7,8,1.3,9
2020/1/29 1:09,0.5,8,0.6,8,1.4,9
2020/1/29 1:10,0.4,8,0.5,8,0.4,9
2020/1/29 1:11,0.5,8,0.5,8,1.4,8
2020/1/29 1:12,0.4,8,0.5,8,1,8
2020/1/29 1:13,0.4,8,0.4,8,0.9,8
2020/1/29 1:14,0.4,7,0.4,8,0.6,6
2020/1/29 1:15,0.4,8,0.4,7,1,6
2020/1/29 1:16,0.4,8,0.4,7,1,8
2020/1/29 1:17,0.5,8,0.5,8,1.4,10
2020/1/29 1:18,0.4,8,0.5,8,1.3,9
2020/1/29 1:19,0.5,8,0.5,8,1.8,8
2020/1/29 1:20,0.6,8,0.6,8,1.8,8
2020/1/29 1:21,0.6,8,0.6,8,1.4,8
2020/1/29 1:22,0.6,8,0.6,8,1.8,8
2020/1/29 1:23,0.7,8,0.7,8,1.1,9
2020/1/29 1:24,0.8,8,0.8,8,1.8,6
2020/1/29 1:25,0.9,8,0.9,8,2,6
2020/1/29 1:26,0.9,8,0.9,8,1.5,7
2020/1/29 1:27,0.8,7,0.9,8,0.4,6
2020/1/29 1:28,0.9,7,0.9,8,2.2,8
2020/1/29 1:29,0.8,7,0.9,8,0.9,13
2020/1/29 1:30,0.8,7,0.8,8,1.8,8
2020/1/29 1:31,0.9,7,0.9,8,2.4,8
2020/1/29 1:32,1,7,1,7,2.7,9
2020/1/29 1:33,1,7,1,7,1.6,8
2020/1/29 1:34,1,7,1,7,2.1,8
2020/1/29 1:35,1,8,1,7,1.6,8
2020/1/29 1:36,1,8,1,7,1.4,7
2020/1/29 1:37,1.2,8,1.2,8,2.7,8
2020/1/29 1:38,1.2,8,1.2,8,2.1,9
2020/1/29 1:39,1.3,8,1.3,8,1.5,8
2020/1/29 1:40,1.3,8,1.3,8,1.6,8
2020/1/29 1:41,1.2,8,1.3,8,1.8,8
2020/1/29 1:42,1.2,8,1.2,8,2.2,8
2020/1/29 1:43,1.2,8,1.2,8,1.1,9
2020/1/29 1:44,1.1,8,1.2,8,2.1,9
2020/1/29 1:45,1,8,1.1,8,1.6,10
2020/1/29 1:46,1,8,1,8,1.6,8
2020/1/29 1:47,1,8,1,8,2.6,8
2020/1/29 1:48,0.9,8,1,8,1.5,9
2020/1/29 1:49,0.8,8,0.8,8,0.4,9
2020/1/29 1:50,0.7,8,0.8,8,0.4,6
2020/1/29 1:51,0.7,8,0.7,8,1.8,8
2020/1/29 1:52,0.6,8,0.7,8,1.6,2
2020/1/29 1:53,0.6,8,0.6,8,1,13
2020/1/29 1:54,0.6,8,0.6,8,0.5,9
2020/1/29 1:55,0.5,8,0.6,8,0.5,15
2020/1/29 1:56,0.6,8,0.6,8,1,10
2020/1/29 1:57,0.5,8,0.6,8,2.6,8
2020/1/29 1:58,0.5,9,0.5,8,1.1,10
2020/1/29 1:59,0.6,8,0.6,8,1.4,10
2020/1/29 2:00,0.7,9,0.7,8,2,9
2020/1/29 2:01,0.7,9,0.7,8,1.5,8
2020/1/29 2:02,0.7,8,0.7,8,1.5,6
2020/1/29 2:03,0.8,8,0.8,8,1.8,9
2020/1/29 2:04,0.8,8,0.8,8,1.8,8
2020/1/29 2:05,0.9,8,0.9,8,2.5,8
2020/1/29 2:06,1,8,1,8,2,9
2020/1/29 2:07,0.9,7,1,8,1.3,5
2020/1/29 2:08,0.9,7,0.9,8,0.9,5
2020/1/29 2:09,0.9,6,0.9,8,0.8,6
2020/1/29 2:10,0.9,6,0.9,8,2.2,4
2020/1/29 2:11,0.9,5,0.9,8,2.6,3
2020/1/29 2:12,0.9,5,0.9,8,1.3,2
2020/1/29 2:13,0.8,5,0.9,8,1.6,9
2020/1/29 2:14,0.8,5,0.8,8,1.3,6
2020/1/29 2:15,0.8,4,0.8,8,2.5,1
2020/1/29 2:16,0.8,4,0.8,8,2.4,1
2020/1/29 2:17,0.9,4,0.9,7,2.5,6
2020/1/29 2:18,1,4,1,4,2.4,4
2020/1/29 2:19,1,4,1,4,0.4,3
2020/1/29 2:20,0.9,3,1,4,1.5,2
2020/1/29 2:21,0.9,3,0.9,4,1.6,2
2020/1/29 2:22,0.9,4,0.9,4,2,8
2020/1/29 2:23,1,4,1,4,3.9,8
2020/1/29 2:24,1,4,1,4,2,5
2020/1/29 2:25,1,4,1,4,1.6,4
2020/1/29 2:26,1,5,1,4,1.5,4
2020/1/29 2:27,0.9,5,1,4,1.6,7
2020/1/29 2:28,0.9,6,0.9,4,2,8
2020/1/29 2:29,0.9,6,0.9,4,0.8,12
2020/1/29 2:30,0.9,7,0.9,4,1.8,9
2020/1/29 2:31,0.9,7,0.9,4,1.5,6
2020/1/29 2:32,0.8,7,0.9,4,0.6,5
2020/1/29 2:33,0.7,7,0.8,4,0.9,1
2020/1/29 2:34,0.7,6,0.7,4,1.5,3
2020/1/29 2:35,0.7,7,0.7,4,1.1,6
2020/1/29 2:36,0.7,7,0.7,5,1.9,8
2020/1/29 2:37,0.6,7,0.7,5,1.5,9
2020/1/29 2:38,0.6,7,0.6,6,1,16
2020/1/29 2:39,0.6,6,0.6,6,1.1,6
2020/1/29 2:40,0.7,6,0.7,7,3.1,8
2020/1/29 2:41,0.8,6,0.8,7,2.2,9
2020/1/29 2:42,0.8,7,0.8,7,1.5,8
2020/1/29 2:43,0.7,9,0.8,6,0.4,13
2020/1/29 2:44,0.6,10,0.7,6,0.3,13
2020/1/29 2:45,0.7,10,0.7,6,3.8,8
2020/1/29 2:46,0.7,11,0.7,6,1.6,10
2020/1/29 2:47,0.7,11,0.7,6,1.5,4
2020/1/29 2:48,0.8,9,0.8,6,1.5,4
2020/1/29 2:49,0.8,8,0.8,6,1.3,5
2020/1/29 2:50,0.7,8,0.8,6,1.3,5
2020/1/29 2:51,0.7,6,0.7,6,1.3,3
2020/1/29 2:52,0.7,5,0.7,7,1,10
2020/1/29 2:53,0.7,5,0.7,10,0.9,16
2020/1/29 2:54,0.8,5,0.8,10,1.3,2
2020/1/29 2:55,0.9,4,0.9,5,3,5
2020/1/29 2:56,0.9,4,0.9,5,2.5,4
2020/1/29 2:57,1,4,1,4,1.6,4
2020/1/29 2:58,0.9,4,1,4,1.3,16
2020/1/29 2:59,0.9,3,0.9,4,0.9,15
2020/1/29 3:00,1,3,1,4,3.2,7
2020/1/29 3:01,0.9,3,1,4,1.3,7
2020/1/29 3:02,1,3,1,4,1.1,16
2020/1/29 3:03,1,3,1,4,0.5,3
2020/1/29 3:04,1,3,1,4,1.9,7
2020/1/29 3:05,0.8,3,1,4,1.9,6
2020/1/29 3:06,0.7,3,0.8,4,1.1,16
2020/1/29 3:07,0.7,2,0.7,4,1.5,15
2020/1/29 3:08,0.8,1,0.8,3,1.6,16
2020/1/29 3:09,0.7,1,0.8,3,0.8,14
2020/1/29 3:10,0.7,1,0.7,3,2.2,4
2020/1/29 3:11,0.9,2,0.9,3,2.6,5
2020/1/29 3:12,1,2,1,3,2.6,5
2020/1/29 3:13,1,3,1,3,1.3,6
2020/1/29 3:14,0.9,2,1,3,0.4,13
2020/1/29 3:15,0.9,2,0.9,2,1.1,5
2020/1/29 3:16,0.9,3,0.9,2,1.1,4
2020/1/29 3:17,0.9,4,0.9,2,1.4,7
2020/1/29 3:18,0.9,4,0.9,2,1,7
2020/1/29 3:19,0.9,4,0.9,2,1,16
2020/1/29 3:20,0.8,5,0.9,2,1.1,9
2020/1/29 3:21,0.5,5,0.7,2,0.4,3
2020/1/29 3:22,0.4,5,0.5,2,1.3,9
2020/1/29 3:23,0.4,6,0.4,3,0.8,8
2020/1/29 3:24,0.5,5,0.5,2,0.6,6
2020/1/29 3:25,0.5,5,0.5,2,0.9,4
2020/1/29 3:26,0.5,5,0.5,3,2,3
2020/1/29 3:27,0.5,4,0.5,4,2.1,3
2020/1/29 3:28,0.5,4,0.5,4,1.1,8
2020/1/29 3:29,0.6,5,0.6,4,1.1,13
2020/1/29 3:30,0.6,5,0.6,5,0.9,7
2020/1/29 3:31,0.6,5,0.6,5,0.6,4
2020/1/29 3:32,0.7,4,0.7,5,1.9,7
2020/1/29 3:33,0.7,4,0.7,5,1.6,6
2020/1/29 3:34,0.8,5,0.8,4,2.7,8
2020/1/29 3:35,0.8,6,0.8,4,1.4,11
2020/1/29 3:36,0.8,8,0.8,4,1.5,8
2020/1/29 3:37,0.8,9,0.8,4,2.1,9
2020/1/29 3:38,0.9,9,0.9,9,2.9,12
2020/1/29 3:39,1.1,9,1.1,9,6.3,2
2020/1/29 3:40,1.4,9,1.4,9,7,1
2020/1/29 3:41,1.9,10,1.9,10,7.5,1
2020/1/29 3:42,2.3,13,2.3,13,7.9,16
2020/1/29 3:43,2.6,14,2.6,14,7.7,1
2020/1/29 3:44,2.8,15,2.8,15,5.2,16
2020/1/29 3:45,3.1,15,3.1,15,5.8,15
2020/1/29 3:46,3.3,16,3.3,16,4.8,16
2020/1/29 3:47,3.3,16,3.3,16,3.2,1
2020/1/29 3:48,3.4,16,3.4,16,3.9,2
2020/1/29 3:49,3.4,1,3.5,1,3.7,2
2020/1/29 3:50,3.3,1,3.4,1,4.7,5
2020/1/29 3:51,3.2,1,3.3,1,4.7,5
2020/1/29 3:52,2.7,1,3.1,1,3.2,15
2020/1/29 3:53,2.3,2,2.7,1,2.1,2
2020/1/29 3:54,2.2,2,2.3,1,1.9,2
2020/1/29 3:55,1.9,2,2.2,1,2,7
2020/1/29 3:56,1.7,3,1.8,1,1.5,16
2020/1/29 3:57,1.6,3,1.7,1,2.2,6
2020/1/29 3:58,1.6,4,1.6,1,3.5,6
2020/1/29 3:59,1.5,4,1.6,1,2.4,6
2020/1/29 4:00,1.3,4,1.4,1,3,5
2020/1/29 4:01,1.2,4,1.3,1,3.1,6
2020/1/29 4:02,1.2,4,1.2,1,2,1
2020/1/29 4:03,1.2,4,1.2,2,1.4,16
2020/1/29 4:04,1.1,5,1.2,2,0.5,10
2020/1/29 4:05,1.2,4,1.2,2,2.6,16
2020/1/29 4:06,1.3,4,1.3,3,3.3,6
2020/1/29 4:07,1.4,4,1.4,3,3.5,8
2020/1/29 4:08,1.4,3,1.4,4,3.7,14
2020/1/29 4:09,1.4,2,1.4,4,2.5,13
2020/1/29 4:10,1.4,3,1.4,4,2.7,6
2020/1/29 4:11,1.4,3,1.4,4,2.1,6
2020/1/29 4:12,1.4,5,1.4,4,1.9,3
2020/1/29 4:13,1.5,5,1.5,5,1.9,3
2020/1/29 4:14,1.5,5,1.5,5,1.9,4
2020/1/29 4:15,1.6,6,1.6,5,3,8
2020/1/29 4:16,1.6,6,1.7,6,3.3,8
2020/1/29 4:17,1.4,6,1.5,6,0.8,2
2020/1/29 4:18,1.2,6,1.4,6,1.5,8
2020/1/29 4:19,1.2,6,1.2,6,1.3,8
2020/1/29 4:20,1.1,6,1.2,6,1.5,4
2020/1/29 4:21,1.1,6,1.1,6,2.7,4
2020/1/29 4:22,1.1,6,1.1,6,1.6,4
2020/1/29 4:23,1,6,1.1,6,1,6
2020/1/29 4:24,1,6,1.1,6,1.5,15
2020/1/29 4:25,0.8,6,1,6,1.1,4
2020/1/29 4:26,0.9,6,0.9,6,2.6,11
2020/1/29 4:27,1.1,7,1.1,6,3.3,10
2020/1/29 4:28,1.2,7,1.2,6,3.8,9
2020/1/29 4:29,1.3,7,1.3,7,2.9,9
2020/1/29 4:30,1.4,8,1.4,8,2.1,11
2020/1/29 4:31,1.3,9,1.4,8,1.5,9
2020/1/29 4:32,1.2,9,1.3,8,1.5,7
2020/1/29 4:33,1.3,9,1.3,8,1,2
2020/1/29 4:34,1.3,8,1.3,8,2.4,7
2020/1/29 4:35,1.4,8,1.4,8,2.7,8
2020/1/29 4:36,1.3,8,1.4,8,1.4,9
2020/1/29 4:37,1.1,8,1.3,8,1.1,12
2020/1/29 4:38,1.1,8,1.2,8,2.1,9
2020/1/29 4:39,1,8,1.1,8,2,10
2020/1/29 4:40,0.9,8,1,8,1.4,9
2020/1/29 4:41,0.9,7,0.9,8,0.8,3
2020/1/29 4:42,0.9,6,0.9,8,1.1,1
2020/1/29 4:43,0.9,6,0.9,8,1.4,1
2020/1/29 4:44,0.8,6,0.9,8,0.5,9
2020/1/29 4:45,0.7,7,0.8,8,1.1,9
2020/1/29 4:46,0.7,7,0.7,8,2.1,9
2020/1/29 4:47,0.8,7,0.8,8,2,9
2020/1/29 4:48,0.8,6,0.8,8,1.3,7
2020/1/29 4:49,0.7,7,0.8,8,0.8,7
2020/1/29 4:50,0.7,7,0.7,8,0.5,10
2020/1/29 4:51,0.6,7,0.7,7,0.4,1
2020/1/29 4:52,0.6,7,0.6,6,0.5,3
2020/1/29 4:53,0.5,8,0.6,6,0.9,5
2020/1/29 4:54,0.6,7,0.6,6,1.9,7
2020/1/29 4:55,0.6,6,0.6,7,1.4,8
2020/1/29 4:56,0.5,7,0.6,7,1.8,8
2020/1/29 4:57,0.5,6,0.5,7,1.8,8
2020/1/29 4:58,0.5,5,0.5,6,1.8,16
2020/1/29 4:59,0.6,4,0.6,7,2.2,1
2020/1/29 5:00,0.8,4,0.8,4,3.8,5
2020/1/29 5:01,1.1,4,1.1,4,3.7,5
2020/1/29 5:02,1.2,5,1.2,5,3.2,6
2020/1/29 5:03,1.4,5,1.4,5,4.2,1
2020/1/29 5:04,1.4,4,1.4,5,1.8,11
2020/1/29 5:05,1.4,4,1.4,5,1.5,13
2020/1/29 5:06,1.5,4,1.5,4,2.4,11
2020/1/29 5:07,1.5,2,1.5,4,1.6,15
2020/1/29 5:08,1.5,15,1.5,4,1.5,9
2020/1/29 5:09,1.4,12,1.5,4,2,13
2020/1/29 5:10,1.4,12,1.5,4,2.2,12
2020/1/29 5:11,1.3,13,1.4,4,2.1,13
2020/1/29 5:12,1.3,12,1.3,4,2.7,12
2020/1/29 5:13,1.3,12,1.3,4,2.5,12
2020/1/29 5:14,1.3,12,1.3,4,1.8,10
2020/1/29 5:15,1.4,12,1.4,4,2.5,10
2020/1/29 5:16,1.5,12,1.5,4,2.5,13
2020/1/29 5:17,1.5,12,1.5,2,2.5,12
2020/1/29 5:18,1.5,12,1.5,14,1.4,12
2020/1/29 5:19,1.4,12,1.5,12,0.5,1
2020/1/29 5:20,1.5,13,1.5,12,4.3,1
2020/1/29 5:21,1.5,13,1.5,12,3,16
2020/1/29 5:22,1.4,13,1.5,12,1.4,15
2020/1/29 5:23,1.4,13,1.4,12,3.2,13
2020/1/29 5:24,1.5,14,1.5,12,3.3,14
2020/1/29 5:25,1.6,14,1.6,14,2.7,16
2020/1/29 5:26,1.6,14,1.6,14,3.1,14
2020/1/29 5:27,1.5,14,1.6,14,3.1,14
2020/1/29 5:28,1.7,14,1.7,14,4.4,11
2020/1/29 5:29,1.9,14,1.9,14,2.6,11
2020/1/29 5:30,1.8,13,2,13,2.7,10
2020/1/29 5:31,1.8,13,1.8,13,2.2,15
2020/1/29 5:32,1.9,13,1.9,13,1.8,14
2020/1/29 5:33,1.8,12,1.9,13,1.5,12
2020/1/29 5:34,1.6,12,1.7,13,1.3,10
2020/1/29 5:35,1.6,12,1.6,13,3,16
2020/1/29 5:36,1.6,13,1.6,13,3.1,16
2020/1/29 5:37,1.6,13,1.6,13,2.4,15
2020/1/29 5:38,1.5,13,1.6,13,3.3,16
2020/1/29 5:39,1.5,14,1.6,13,3.9,5
2020/1/29 5:40,1.5,14,1.5,13,2.6,15
2020/1/29 5:41,1.6,14,1.6,13,3.8,16
2020/1/29 5:42,1.8,15,1.8,13,5.4,16
2020/1/29 5:43,1.9,15,1.9,15,4.7,16
2020/1/29 5:44,2,16,2,16,3.7,15
2020/1/29 5:45,2.2,15,2.2,16,6.5,15
2020/1/29 5:46,2.5,16,2.5,16,7.4,16
2020/1/29 5:47,2.7,16,2.7,16,6.5,16
2020/1/29 5:48,2.7,16,2.7,16,4.2,16
2020/1/29 5:49,2.6,16,2.6,16,2.9,6
2020/1/29 5:50,2.6,16,2.6,16,3.5,2
2020/1/29 5:51,2.5,16,2.6,16,1.3,15
2020/1/29 5:52,2.3,16,2.4,16,2.7,11
2020/1/29 5:53,2.2,15,2.3,16,2.1,11
2020/1/29 5:54,2,15,2.2,16,0.8,8
2020/1/29 5:55,1.8,1,2,16,1.6,5
2020/1/29 5:56,1.3,4,1.7,16,2.1,4
2020/1/29 5:57,1.1,6,1.3,16,1.3,15
2020/1/29 5:58,1.1,6,1.1,16,3.5,14
2020/1/29 5:59,1.2,15,1.2,16,2.7,15
2020/1/29 6:00,1.1,14,1.2,16,3.1,16
2020/1/29 6:01,1.3,14,1.3,16,3.2,16
2020/1/29 6:02,1.4,15,1.4,15,3.6,13
2020/1/29 6:03,1.4,15,1.4,15,3.3,13
2020/1/29 6:04,1.7,14,1.7,15,3,13
2020/1/29 6:05,1.8,14,1.8,14,3.6,12
2020/1/29 6:06,1.8,13,1.8,14,2.1,9
2020/1/29 6:07,1.9,13,1.9,13,2.1,12
2020/1/29 6:08,1.9,13,1.9,13,3.8,15
2020/1/29 6:09,2,13,2,13,4.7,16
2020/1/29 6:10,2.3,14,2.3,14,5,16
2020/1/29 6:11,2.3,14,2.3,14,4.1,16
2020/1/29 6:12,2.3,14,2.4,14,2.7,16
2020/1/29 6:13,2.1,15,2.3,14,1.8,1
2020/1/29 6:14,2,15,2.1,14,1.8,3
2020/1/29 6:15,1.9,15,2,14,1,10
2020/1/29 6:16,1.8,15,1.9,14,0.9,10
2020/1/29 6:17,1.8,16,1.8,14,2,8
2020/1/29 6:18,1.8,15,1.8,14,2.5,8
2020/1/29 6:19,1.6,10,1.7,14,2,9
2020/1/29 6:20,1.4,9,1.6,14,2.1,10
2020/1/29 6:21,1.3,9,1.4,14,2.1,10
2020/1/29 6:22,1.2,9,1.3,14,1.8,9
2020/1/29 6:23,1.2,10,1.2,15,1.6,15
2020/1/29 6:24,1.4,10,1.4,15,4.5,15
2020/1/29 6:25,1.8,10,1.8,15,5,15
2020/1/29 6:26,1.9,11,1.9,11,3.2,13
2020/1/29 6:27,2.2,11,2.2,11,5.1,9
2020/1/29 6:28,2.2,11,2.3,11,5,9
2020/1/29 6:29,2.2,11,2.2,11,1.8,10
2020/1/29 6:30,2.2,12,2.2,11,2.7,15
2020/1/29 6:31,2.3,13,2.3,11,4.2,15
2020/1/29 6:32,2.3,13,2.3,11,2.5,15
2020/1/29 6:33,2.5,14,2.5,14,4.1,15
2020/1/29 6:34,2.4,14,2.5,14,3,14
2020/1/29 6:35,2.2,13,2.4,14,3.6,8
2020/1/29 6:36,2,13,2.1,14,1.6,15
2020/1/29 6:37,1.8,14,2,14,1.9,15
2020/1/29 6:38,1.6,14,1.7,14,1.5,12
2020/1/29 6:39,1.5,14,1.6,14,0.9,9
2020/1/29 6:40,1.4,13,1.5,14,0.8,9
2020/1/29 6:41,1.2,13,1.4,14,1,13
2020/1/29 6:42,1.1,12,1.2,14,1.4,8
2020/1/29 6:43,0.8,11,1.1,14,1.6,8
2020/1/29 6:44,0.7,11,0.8,13,0.8,2
2020/1/29 6:45,0.6,12,0.7,13,2.2,1
2020/1/29 6:46,0.6,12,0.6,13,0.8,11
2020/1/29 6:47,0.6,12,0.6,14,2.7,12
2020/1/29 6:48,0.6,12,0.6,14,1.4,12
2020/1/29 6:49,0.7,12,0.7,14,1.4,2
2020/1/29 6:50,0.7,15,0.7,13,1.9,1
2020/1/29 6:51,0.7,1,0.7,13,0.8,4
2020/1/29 6:52,0.7,1,0.7,12,1,10
2020/1/29 6:53,0.6,16,0.6,11,0.6,9
2020/1/29 6:54,0.6,11,0.6,11,1.4,8
2020/1/29 6:55,0.5,9,0.6,12,1.1,9
2020/1/29 6:56,0.7,9,0.7,12,3,13
2020/1/29 6:57,0.7,9,0.7,12,3.5,13
2020/1/29 6:58,0.9,9,0.9,9,3.2,15
2020/1/29 6:59,1,11,1,11,2.6,1
2020/1/29 7:00,0.9,11,1,11,1.4,13
2020/1/29 7:01,0.9,11,0.9,11,0.6,8
2020/1/29 7:02,0.9,11,0.9,11,1.5,9
2020/1/29 7:03,1,11,1,11,1.9,8
2020/1/29 7:04,1.1,12,1.1,12,2.4,9
2020/1/29 7:05,1.1,12,1.1,12,1.3,9
2020/1/29 7:06,1.1,13,1.1,12,2.1,13
2020/1/29 7:07,1.1,13,1.1,12,3.1,14
2020/1/29 7:08,1,12,1.1,12,2.9,14
2020/1/29 7:09,1,12,1,12,2.4,14
2020/1/29 7:10,1.1,13,1.1,12,2.4,14
2020/1/29 7:11,1.3,13,1.3,13,2.4,13
2020/1/29 7:12,1.4,13,1.4,13,2,15
2020/1/29 7:13,1.5,13,1.5,13,2.6,15
2020/1/29 7:14,1.5,14,1.5,13,2,16
2020/1/29 7:15,1.6,14,1.6,14,2.2,16
2020/1/29 7:16,1.7,14,1.7,14,3.3,15
2020/1/29 7:17,1.7,15,1.8,14,3,1
2020/1/29 7:18,1.7,15,1.8,14,3.3,2
2020/1/29 7:19,1.8,15,1.8,14,3.2,16
2020/1/29 7:20,1.9,15,1.9,15,3.2,15
2020/1/29 7:21,1.8,16,1.8,15,1.9,15
2020/1/29 7:22,1.8,16,1.8,15,2.5,15
2020/1/29 7:23,2,16,2,16,7.1,16
2020/1/29 7:24,2.2,16,2.2,16,6,15
2020/1/29 7:25,2.4,16,2.4,16,4.1,16
2020/1/29 7:26,2.4,16,2.4,16,4.7,16
2020/1/29 7:27,2.4,16,2.5,16,3.2,14
2020/1/29 7:28,2.4,16,2.4,16,3.1,15
2020/1/29 7:29,2.5,16,2.5,16,5.5,15
2020/1/29 7:30,2.6,16,2.6,16,4.4,16
2020/1/29 7:31,2.8,16,2.8,16,5.2,1
2020/1/29 7:32,2.9,16,2.9,16,4.1,1
2020/1/29 7:33,2.7,16,2.9,16,2.1,1
2020/1/29 7:34,2.5,16,2.7,16,3.2,2
2020/1/29 7:35,2.7,16,2.7,16,7.6,16
2020/1/29 7:36,2.7,16,2.7,16,5.8,16
2020/1/29 7:37,2.8,16,2.8,16,3.9,16
2020/1/29 7:38,3,16,3,16,5.1,16
2020/1/29 7:39,3,16,3.1,16,5.6,16
2020/1/29 7:40,3,16,3,16,4.1,16
2020/1/29 7:41,2.8,16,3,16,2.6,14
2020/1/29 7:42,2.7,16,2.8,16,2.2,12
2020/1/29 7:43,2.8,16,2.8,16,3.5,10
2020/1/29 7:44,2.8,15,2.8,16,2.2,11
2020/1/29 7:45,2.5,15,2.8,16,3.5,14
2020/1/29 7:46,2.4,15,2.5,16,4.2,14
2020/1/29 7:47,2.3,15,2.4,16,3.3,1
2020/1/29 7:48,2.3,15,2.3,16,3.7,15
2020/1/29 7:49,2.2,15,2.3,16,4.4,16
2020/1/29 7:50,2.2,15,2.3,16,4.2,16
2020/1/29 7:51,2.4,14,2.4,16,5.5,14
2020/1/29 7:52,2.5,14,2.5,16,4.3,14
2020/1/29 7:53,2.4,15,2.5,16,2.6,16
2020/1/29 7:54,2.5,15,2.5,15,3.3,14
2020/1/29 7:55,2.5,15,2.5,15,3.7,16
2020/1/29 7:56,2.6,15,2.6,15,5.1,16
2020/1/29 7:57,2.6,15,2.6,15,3.7,16
2020/1/29 7:58,2.5,15,2.6,15,2.5,11
2020/1/29 7:59,2.2,14,2.4,15,0.9,11
2020/1/29 8:00,2,14,2.1,15,1.1,13
2020/1/29 8:01,1.7,14,2,15,1.5,12
2020/1/29 8:02,1.6,14,1.7,15,1.4,15
2020/1/29 8:03,1.4,14,1.6,15,1.1,15
2020/1/29 8:04,1.4,14,1.4,15,2.1,16
2020/1/29 8:05,1.1,14,1.4,15,0.9,15
2020/1/29 8:06,0.8,13,1.1,15,0.6,9
2020/1/29 8:07,0.7,13,0.8,15,0.6,8
2020/1/29 8:08,0.6,13,0.7,15,1.4,8
2020/1/29 8:09,0.7,12,0.7,14,1.6,9
2020/1/29 8:10,0.7,11,0.7,14,1.1,10
2020/1/29 8:11,0.6,11,0.6,14,0.6,13
2020/1/29 8:12,0.5,10,0.6,14,0.4,12
2020/1/29 8:13,0.5,9,0.5,14,1.1,9
2020/1/29 8:14,0.4,9,0.5,14,1.9,8
2020/1/29 8:15,0.6,9,0.6,14,2.6,8
2020/1/29 8:16,0.7,9,0.7,13,2.6,8
2020/1/29 8:17,0.9,9,0.9,9,2.5,8
2020/1/29 8:18,0.8,9,0.9,9,1.3,7
2020/1/29 8:19,0.8,9,0.8,9,1,11
2020/1/29 8:20,0.9,9,0.9,9,2,9
2020/1/29 8:21,1,9,1,9,2.2,9
2020/1/29 8:22,1.1,8,1.1,8,1,9
2020/1/29 8:23,1.1,8,1.1,8,1.3,6
2020/1/29 8:24,1.2,8,1.2,8,2,7
2020/1/29 8:25,1.2,8,1.2,8,2.2,9
2020/1/29 8:26,1.1,9,1.1,8,1.5,10
2020/1/29 8:27,1,9,1,8,1.5,16
2020/1/29 8:28,1,9,1,8,1.3,1
2020/1/29 8:29,0.9,8,1,8,0.8,2
2020/1/29 8:30,0.9,8,0.9,8,3.5,11
2020/1/29 8:31,0.9,9,0.9,8,3,12
2020/1/29 8:32,1,11,1,8,2.7,14
2020/1/29 8:33,1.1,13,1.1,8,4.2,16
2020/1/29 8:34,1.2,14,1.2,8,4.1,16
2020/1/29 8:35,1.2,15,1.3,14,3.9,16
2020/1/29 8:36,1.5,16,1.5,16,6.7,2
2020/1/29 8:37,1.6,16,1.6,16,4.7,15
2020/1/29 8:38,1.7,16,1.7,16,2.5,14
2020/1/29 8:39,1.8,16,1.8,16,2.7,15
2020/1/29 8:40,2,16,2,16,4.4,16
2020/1/29 8:41,2.1,16,2.1,16,4.4,14
2020/1/29 8:42,2.3,16,2.3,16,4.4,14
2020/1/29 8:43,2.3,15,2.4,16,3.9,11
2020/1/29 8:44,2.3,15,2.3,16,2.9,11
2020/1/29 8:45,2.3,15,2.3,16,3,14
2020/1/29 8:46,2.2,15,2.3,16,4.1,1
2020/1/29 8:47,2.2,14,2.2,16,3.5,14
2020/1/29 8:48,2.2,14,2.2,16,3.3,13
2020/1/29 8:49,2.2,14,2.2,16,3,16
2020/1/29 8:50,2.3,14,2.3,16,6,16
2020/1/29 8:51,2.4,15,2.4,16,8.1,16
2020/1/29 8:52,2.6,15,2.6,15,7.5,1
2020/1/29 8:53,2.7,16,2.7,15,6.4,1
2020/1/29 8:54,2.9,16,2.9,16,8.3,15
2020/1/29 8:55,3.4,16,3.4,16,9.1,15
2020/1/29 8:56,3.5,16,3.5,16,6.7,15
2020/1/29 8:57,3.4,16,3.5,16,2.5,15
2020/1/29 8:58,3.5,16,3.5,16,5.2,16
2020/1/29 8:59,3.8,16,3.8,16,5.7,1
2020/1/29 9:00,3.7,16,3.8,16,5,16
2020/1/29 9:01,3.7,16,3.8,16,5.8,15
2020/1/29 9:02,3.4,15,3.7,16,3.8,14
2020/1/29 9:03,3.2,15,3.4,16,2.9,12
2020/1/29 9:04,3.1,15,3.2,16,6.3,14
2020/1/29 9:05,2.7,15,3,16,4.9,1
2020/1/29 9:06,2.6,15,2.7,16,7.5,16
2020/1/29 9:07,2.9,15,2.9,16,5.8,16
2020/1/29 9:08,3.1,15,3.1,16,8.6,16
2020/1/29 9:09,3.1,15,3.1,16,8.1,1
2020/1/29 9:10,3.3,15,3.3,16,7.6,16
2020/1/29 9:11,3.5,15,3.5,16,8.3,15
2020/1/29 9:12,3.7,16,3.7,16,8.1,16
2020/1/29 9:13,4,16,4,16,8.3,1
2020/1/29 9:14,4.2,16,4.2,16,8.1,15
2020/1/29 9:15,4.5,16,4.5,16,9.2,16
2020/1/29 9:16,4.8,16,4.8,16,8.2,16
2020/1/29 9:17,4.7,16,4.8,16,7.2,15
2020/1/29 9:18,4.3,16,4.7,16,2,13
2020/1/29 9:19,4,16,4.3,16,2,14
2020/1/29 9:20,3.6,16,4,16,1.6,14
2020/1/29 9:21,3.2,16,3.6,16,2.9,3
2020/1/29 9:22,2.8,1,3.1,16,2.9,3
2020/1/29 9:23,2.4,1,2.8,16,0.8,12
2020/1/29 9:24,1.9,1,2.3,16,1.3,2
2020/1/29 9:25,1.5,1,1.9,16,1.8,7
2020/1/29 9:26,1.1,2,1.5,16,1.6,8
2020/1/29 9:27,0.9,7,1,16,2.6,9
2020/1/29 9:28,0.9,8,1,16,1.4,10
2020/1/29 9:29,0.9,8,0.9,16,1.4,8
2020/1/29 9:30,0.9,7,0.9,16,2,8
2020/1/29 9:31,0.8,8,0.9,16,0.6,11
2020/1/29 9:32,0.8,9,0.8,1,1,1
2020/1/29 9:33,0.8,9,0.8,1,1.1,1
2020/1/29 9:34,0.9,8,0.9,1,1.1,1
2020/1/29 9:35,0.8,8,0.9,1,0.8,4
2020/1/29 9:36,0.7,5,0.8,2,0.5,1
2020/1/29 9:37,0.6,4,0.7,8,0,4
2020/1/29 9:38,0.5,2,0.6,8,0.8,13
2020/1/29 9:39,0.5,2,0.5,8,0.6,12
2020/1/29 9:40,0.4,16,0.5,7,0.8,10
2020/1/29 9:41,0.4,16,0.4,8,1.1,12
2020/1/29 9:42,0.6,15,0.6,8,3,14
2020/1/29 9:43,0.6,14,0.6,8,2.4,13
2020/1/29 9:44,0.6,12,0.6,8,0.9,10
2020/1/29 9:45,0.6,13,0.6,7,1.1,14
2020/1/29 9:46,0.7,13,0.7,4,1.6,14
2020/1/29 9:47,0.8,13,0.8,13,2.6,14
2020/1/29 9:48,0.9,13,0.9,13,1.5,13
2020/1/29 9:49,0.9,13,0.9,13,1.3,14
2020/1/29 9:50,1,13,1,13,1.5,9
2020/1/29 9:51,1,13,1,13,0.6,11
2020/1/29 9:52,0.8,13,1,13,0.1,11
2020/1/29 9:53,0.7,14,0.8,13,1.4,15
2020/1/29 9:54,0.8,14,0.8,13,2.7,14
2020/1/29 9:55,0.9,14,0.9,13,3.1,15
2020/1/29 9:56,1.1,14,1.1,14,3.1,16
2020/1/29 9:57,1,14,1.1,14,1.9,15
2020/1/29 9:58,1,14,1,14,2.1,15
2020/1/29 9:59,1.1,14,1.1,14,2.2,15
2020/1/29 10:00,1.1,15,1.1,14,1.8,15
2020/1/29 10:01,1.2,15,1.2,15,3,12
2020/1/29 10:02,1.4,14,1.4,14,3.3,13
2020/1/29 10:03,1.5,14,1.5,14,2.5,9
2020/1/29 10:04,1.6,13,1.6,14,5.4,9
2020/1/29 10:05,1.8,13,1.8,13,4.4,10
2020/1/29 10:06,1.8,12,1.8,13,4.3,9
2020/1/29 10:07,1.9,12,1.9,12,4.5,10
2020/1/29 10:08,2,11,2,11,3.9,10
2020/1/29 10:09,2,11,2,11,3.9,9
2020/1/29 10:10,2.2,11,2.2,11,4.4,11
2020/1/29 10:11,2.3,11,2.3,11,4.7,11
2020/1/29 10:12,2.3,10,2.3,11,4.7,9
2020/1/29 10:13,2.4,11,2.4,11,3.6,12
2020/1/29 10:14,2.3,11,2.4,11,2.6,8
2020/1/29 10:15,2.2,11,2.2,11,4.2,13
2020/1/29 10:16,2.2,11,2.2,11,4.9,12
2020/1/29 10:17,2.3,11,2.3,11,4.5,10
2020/1/29 10:18,2.3,11,2.3,11,3.5,8
2020/1/29 10:19,2.4,11,2.4,11,6.1,10
2020/1/29 10:20,2.4,11,2.4,11,4.4,10
2020/1/29 10:21,2.3,11,2.5,11,4.5,9
2020/1/29 10:22,2.3,11,2.3,11,2.7,11
2020/1/29 10:23,2.3,11,2.3,11,4.9,13
2020/1/29 10:24,2.4,11,2.4,11,3.6,10
2020/1/29 10:25,2.4,11,2.4,11,4.7,9
2020/1/29 10:26,2.3,10,2.4,11,4.8,10
2020/1/29 10:27,2.2,10,2.3,11,4.2,10
2020/1/29 10:28,2.2,10,2.3,11,3.9,9
2020/1/29 10:29,2.1,11,2.2,11,1.6,12
2020/1/29 10:30,2,11,2,11,3.8,12
2020/1/29 10:31,2,11,2,11,3.2,12
2020/1/29 10:32,2,11,2.1,11,3.1,10
2020/1/29 10:33,2,12,2,11,3.3,15
2020/1/29 10:34,2,12,2.1,11,2.7,14
2020/1/29 10:35,1.9,12,2,11,2.1,12
2020/1/29 10:36,1.7,12,1.8,10,1.8,14
2020/1/29 10:37,1.8,13,1.8,10,3.1,14
2020/1/29 10:38,1.7,13,1.8,10,3.1,13
2020/1/29 10:39,1.8,13,1.8,11,2.5,16
2020/1/29 10:40,1.7,14,1.8,11,2.5,4
2020/1/29 10:41,1.6,14,1.7,11,2.1,3
2020/1/29 10:42,1.4,14,1.5,12,1.5,16
2020/1/29 10:43,1.3,14,1.4,12,0.4,5
2020/1/29 10:44,1.2,15,1.2,12,1.4,16
2020/1/29 10:45,1.2,16,1.2,12,1.8,14
2020/1/29 10:46,1.2,16,1.2,13,3.1,15
2020/1/29 10:47,1.1,16,1.2,13,2.4,14
2020/1/29 10:48,1,1,1.1,13,3.2,5
2020/1/29 10:49,1,2,1,13,2.4,3
2020/1/29 10:50,1,2,1.1,14,3,5
2020/1/29 10:51,1.1,3,1.1,14,3.3,7
2020/1/29 10:52,1.2,3,1.2,14,3.9,8
2020/1/29 10:53,1.3,2,1.3,3,2.4,10
2020/1/29 10:54,1.4,2,1.4,1,3.3,16
2020/1/29 10:55,1.5,2,1.5,2,3.9,1
2020/1/29 10:56,1.5,2,1.6,2,3.2,16
2020/1/29 10:57,1.5,3,1.5,2,2.7,14
2020/1/29 10:58,1.5,1,1.6,2,2.1,11
2020/1/29 10:59,1.5,1,1.5,2,2.2,2
2020/1/29 11:00,1.5,3,1.5,2,2.6,6
2020/1/29 11:01,1.5,2,1.5,2,3.6,7
2020/1/29 11:02,1.5,3,1.6,2,3.5,7
2020/1/29 11:03,1.6,3,1.6,2,3.2,1
2020/1/29 11:04,1.6,2,1.6,2,2,10
2020/1/29 11:05,1.4,6,1.5,2,2,11
2020/1/29 11:06,1.3,7,1.4,3,1.8,8
2020/1/29 11:07,1.3,7,1.3,3,1.3,7
2020/1/29 11:08,1.4,7,1.4,2,6,8
2020/1/29 11:09,1.5,8,1.5,2,4.8,9
2020/1/29 11:10,1.7,9,1.7,9,5.8,12
2020/1/29 11:11,1.7,10,1.7,9,4.5,10
2020/1/29 11:12,1.6,11,1.7,9,3.1,8
2020/1/29 11:13,1.6,10,1.6,9,3.5,9
2020/1/29 11:14,1.8,10,1.8,10,3.8,9
2020/1/29 11:15,1.9,10,1.9,10,5.1,10
2020/1/29 11:16,2,10,2,10,5.4,11
2020/1/29 11:17,2.1,10,2.1,10,3.1,8
2020/1/29 11:18,2,10,2.1,10,2.7,9
2020/1/29 11:19,1.9,10,1.9,10,2.5,9
2020/1/29 11:20,1.9,10,1.9,10,4.1,11
2020/1/29 11:21,1.8,10,1.9,10,3.9,9
2020/1/29 11:22,2,10,2,10,5.6,10
2020/1/29 11:23,2.3,10,2.3,10,5.8,10